EZY751 EGGD-EHAM

Flight info

Callsign EZY751
Flight time N/A
Altitude 29000
Route YORQI L607 ALHAD P72 IPRIL M197 REDFA
Aircraft A320/M-SDE3FGHIRWY/LB1

Departure

Time 2026-05-05 16:55
Airport Bristol Airport (EGGD)

Arrival

Time N/A
Airport Amsterdam Airport Schiphol (EHAM)
Time Latitude Longitude Altitude Speed Heading
2026-05-05 16:44 51.38523 -2.71078 612 ft 0 kts 356°
2026-05-05 16:47 51.38522 -2.71078 612 ft 2 kts 356°
2026-05-05 16:47 51.38497 -2.71074 616 ft 4 kts 347°
2026-05-05 16:47 51.38473 -2.71060 620 ft 4 kts 320°
2026-05-05 16:47 51.38462 -2.71033 619 ft 1 kts 267°
2026-05-05 16:48 51.38462 -2.71031 619 ft 0 kts 266°
2026-05-05 16:50 51.38462 -2.71032 619 ft 1 kts 266°
2026-05-05 16:50 51.38461 -2.71051 622 ft 1 kts 266°
2026-05-05 16:51 51.38461 -2.71062 619 ft 3 kts 266°
2026-05-05 16:51 51.38459 -2.71112 615 ft 7 kts 266°
2026-05-05 16:51 51.38455 -2.71209 615 ft 11 kts 266°
2026-05-05 16:51 51.38449 -2.71355 614 ft 17 kts 266°
2026-05-05 16:52 51.38440 -2.71585 608 ft 25 kts 266°
2026-05-05 16:52 51.38429 -2.71893 610 ft 30 kts 268°
2026-05-05 16:52 51.38424 -2.72245 615 ft 33 kts 266°
2026-05-05 16:52 51.38410 -2.72605 619 ft 34 kts 267°
2026-05-05 16:53 51.38395 -2.72994 617 ft 36 kts 267°
2026-05-05 16:53 51.38369 -2.73287 616 ft 18 kts 235°
2026-05-05 16:53 51.38280 -2.73340 619 ft 11 kts 174°
2026-05-05 16:53 51.38230 -2.73298 635 ft 6 kts 132°
2026-05-05 16:54 51.38219 -2.73260 626 ft 2 kts 104°
2026-05-05 16:54 51.38218 -2.73230 626 ft 1 kts 91°
2026-05-05 16:54 51.38218 -2.73228 626 ft 0 kts 91°
2026-05-05 16:54 51.38227 -2.72979 627 ft 65 kts 84°
2026-05-05 16:55 51.38281 -2.71768 617 ft 148 kts 86°
2026-05-05 16:55 51.38342 -2.69884 993 ft 172 kts 84°
2026-05-05 16:55 51.38415 -2.68105 2186 ft 158 kts 81°
2026-05-05 16:55 51.38477 -2.66286 2762 ft 167 kts 83°
2026-05-05 16:56 51.38533 -2.64379 3322 ft 177 kts 82°
2026-05-05 16:56 51.38598 -2.62290 3650 ft 200 kts 82°
2026-05-05 16:56 51.38674 -2.59927 4002 ft 224 kts 84°
2026-05-05 16:56 51.38793 -2.57335 4481 ft 246 kts 74°
2026-05-05 16:57 51.39599 -2.54919 5142 ft 251 kts 40°
2026-05-05 16:57 51.41117 -2.53497 5803 ft 258 kts 22°
2026-05-05 16:57 51.42740 -2.52208 5971 ft 260 kts 27°
2026-05-05 16:57 51.44296 -2.50790 5994 ft 259 kts 29°
2026-05-05 16:58 51.45852 -2.49258 6000 ft 259 kts 30°
2026-05-05 16:58 51.47376 -2.47670 5992 ft 260 kts 32°
2026-05-05 16:58 51.48889 -2.46085 5991 ft 259 kts 32°
2026-05-05 16:58 51.50363 -2.44480 5990 ft 260 kts 39°
2026-05-05 16:59 51.51479 -2.42183 5996 ft 264 kts 63°
2026-05-05 16:59 51.51894 -2.39240 6309 ft 279 kts 90°
2026-05-05 16:59 51.51695 -2.36164 7362 ft 276 kts 96°
2026-05-05 16:59 51.51483 -2.33072 8304 ft 280 kts 95°
2026-05-05 17:00 51.51282 -2.29927 9184 ft 286 kts 94°
2026-05-05 17:00 51.51079 -2.26752 10014 ft 292 kts 94°
2026-05-05 17:00 51.50860 -2.23403 10445 ft 313 kts 95°
2026-05-05 17:00 51.50618 -2.19799 10736 ft 336 kts 95°
2026-05-05 17:01 51.50359 -2.15973 11204 ft 351 kts 95°
2026-05-05 17:01 51.50089 -2.12031 11951 ft 356 kts 95°
2026-05-05 17:01 51.49810 -2.08050 12742 ft 360 kts 96°
2026-05-05 17:01 51.49522 -2.04031 13531 ft 364 kts 96°
2026-05-05 17:02 51.49230 -1.99955 14215 ft 369 kts 96°
2026-05-05 17:02 51.48937 -1.95839 14908 ft 372 kts 96°
2026-05-05 17:02 51.48646 -1.91739 15588 ft 376 kts 96°
2026-05-05 17:02 51.48347 -1.87550 16285 ft 379 kts 96°
2026-05-05 17:03 51.48043 -1.83340 16969 ft 382 kts 96°
2026-05-05 17:03 51.47733 -1.79090 17647 ft 385 kts 96°
2026-05-05 17:03 51.47418 -1.74802 18294 ft 389 kts 96°
2026-05-05 17:03 51.47099 -1.70467 18849 ft 393 kts 96°
2026-05-05 17:04 51.46688 -1.66095 19392 ft 398 kts 102°
2026-05-05 17:04 51.46109 -1.61780 19905 ft 403 kts 102°
2026-05-05 17:04 51.45506 -1.57352 20435 ft 408 kts 102°
2026-05-05 17:04 51.44892 -1.52889 21017 ft 411 kts 103°
2026-05-05 17:05 51.44270 -1.48390 21537 ft 415 kts 103°